KINEIS-2C

Last updated on Sun Apr 12 2026 00:02:47 GMT+0000 (Coordinated Universal Time)

1 62929U 25028B 26101.41631002 .00000978 00000+0 16242-3 0 9993 2 62929 98.0275 156.1759 0001587 154.2730 205.8557 14.72328071 62788
UTC large
Height (km)
Speed (km/s)
/
Latitude / Longitude
Inclination (degrees)
Orbital Period (minutes)
Azimuth
Elevation
Range (km)
Doppler Factor

Next 0 passes for location: London (51.5072 / 0.1276)

Sorry there are no passes over London.
KINEIS-2C